Temperature
20 21 23 23 23 24 23 21 21 21 21 21 20 20 21 21 21 21 21 21 21 22 22 22 22 21 21 21 21 20 20 20 20 20 19 19 19 19 18 18 18 18 18 18
20 22 22 22 23 23 23 23 22 21 21 20 20 21 21 21 21 20 21 21 21 21 21 21 21 21 21 21 20 20 20 20 20 19 19 19 18 18 18 18 18 18 17 17
18 19 21 20 22 22 22 21 21 20 20 20 19 19 20 20 20 20 20 21 21 21 21 21 21 21 20 20 20 19 19 19 19 19 18 18 18 18 18 17 17 17 17 17
16 18 19 19 21 22 21 21 20 20 19 19 19 20 20 20 20 20 20 20 21 20 20 20 20 20 20 20 20 19 19 19 18 18 18 18 17 17 17 17 17 17 17 17
15 17 18 20 21 21 20 19 19 19 19 19 20 19 19 20 20 20 20 20 20 20 20 20 20 20 19 19 19 18 18 18 18 18 18 18 17 17 17 17 17 17 17 16
15 17 17 18 20 21 20 18 19 19 18 18 18 16 17 19 20 19 19 20 20 20 19 19 19 19 19 19 18 18 18 18 17 17 18 17 17 17 17 17 17 17 16 16
15 16 16 18 20 20 18 17 18 19 19 18 17 17 18 19 19 19 19 19 19 19 19 19 19 19 18 18 18 18 18 17 17 17 17 17 17 16 16 16 16 16 16 16
14 15 16 18 18 17 16 18 18 18 18 18 18 18 18 19 19 18 18 18 18 18 18 18 18 18 18 18 17 17 17 17 17 16 16 16 16 16 16 16 16 16 16 15
14 15 16 18 18 18 18 18 18 18 18 18 18 18 18 18 18 18 18 18 18 17 17 17 17 17 17 17 17 17 16 16 16 16 16 16 16 16 15 15 15 15 15 15
14 15 16 17 18 18 18 18 18 18 17 18 17 17 17 17 17 17 17 17 17 17 17 16 17 16 16 16 16 16 16 16 16 16 15 15 15 15 15 15 15 15 15 15
13 14 16 17 17 17 17 17 17 17 17 17 17 17 17 17 17 17 17 17 17 17 16 16 16 16 16 16 16 15 15 15 15 15 15 15 15 15 15 15 15 15 15 15
13 14 14 15 17 17 17 17 17 17 17 17 17 17 17 17 17 16 16 16 16 16 16 15 15 15 15 15 15 15 15 15 15 15 15 14 14 14 14 14 14 14 14 14
16 16 16 16 16 16 16 16 16 16 16 16 16 16 16 16 16 16 16 16 15 15 15 15 15 15 15 15 14 15 14 14 14 14 14 14 14 14 14 14 14 14 14 14
16 16 15 16 16 16 16 16 16 16 16 16 16 16 16 16 15 15 15 15 15 15 15 14 14 14 14 14 14 14 14 14 14 14 14 14 14 14 13 13 13 14 13 13
15 15 15 15 15 15 15 15 15 15 15 15 15 15 15 15 15 15 15 15 15 14 14 14 14 14 14 14 13 13 13 13 13 13 13 13 13 13 13 13 13 13 13 13
15 15 15 15 15 15 15 15 15 15 15 15 15 15 15 14 14 14 14 14 14 14 14 14 13 13 13 13 13 13 13 13 13 13 13 13 13 13 13 13 12 12 12 12
14 14 14 14 14 14 14 14 15 15 15 15 14 14 14 14 14 14 14 14 14 13 13 13 13 13 13 13 13 13 12 13 12 12 12 12 12 12 12 12 12 12 12 12
14 14 14 14 14 14 14 14 14 14 14 14 14 14 14 14 13 13 13 13 13 13 13 13 12 12 12 12 12 12 12 12 12 12 12 12 12 12 12 12 11 11 11 11
14 14 14 14 14 14 14 14 14 14 14 14 14 13 13 13 13 13 13 13 13 13 12 12 12 12 12 12 12 12 12 12 12 12 11 11 11 11 11 11 11 11 11 11
13 13 13 13 13 13 13 14 14 14 13 13 13 13 13 13 13 13 13 12 12 12 12 12 12 12 11 11 11 11 11 11 11 11 11 11 11 11 11 11 11 11 10 10
13 13 13 13 13 13 13 13 13 13 13 13 13 13 13 13 12 12 12 12 12 12 12 11 11 11 11 11 11 11 11 11 11 11 11 11 11 10 10 10 10 10 10 10
13 13 13 13 13 13 13 13 13 13 13 13 12 12 12 12 12 12 12 12 12 12 11 11 11 11 11 11 11 11 11 11 11 11 10 10 10 10 10 10 10 10 10 10
12 12 12 13 13 13 13 13 13 12 12 12 12 12 12 12 12 12 12 11 11 11 11 11 11 11 11 11 11 11 11 10 10 10 10 10 10 10 10 10 10 10 9 9
12 12 12 12 12 12 12 12 12 12 12 12 12 12 12 12 12 11 12 11 11 11 11 11 11 11 11 11 11 11 10 10 10 10 10 10 10 10 10 10 9 9 9 9
12 12 12 12 12 12 12 12 12 12 12 12 12 12 12 11 11 11 11 11 11 11 11 11 11 11 10 10 10 10 10 10 10 10 10 10 10 10 10 9 9 9 9 9
12 12 12 12 12 12 12 12 12 12 12 12 12 11 11 11 11 11 11 11 11 11 11 11 10 10 10 10 10 10 10 10 10 10 10 9 9 9 9 9 9 9 9 8
12 12 12 12 12 12 12 12 12 12 12 12 11 11 11 11 11 11 11 11 11 11 10 10 10 10 10 10 10 10 10 10 10 9 9 9 9 9 9 9 9 8 8 8
Wind_Speed
4 5 3 4 8 7 2 4 6 6 5 6 6 7 5 5 6 5 4 4 3 3 2 2 2 3 6 7 7 9 9 9 9 7 7 7 7 6 6 6 7 6 6 6
5 5 5 5 6 6 4 2 2 2 3 4 3 4 4 6 7 5 4 4 4 3 2 2 3 4 5 6 7 8 9 8 7 6 6 7 7 6 6 6 6 6 6 6
4 7 5 5 3 2 3 3 2 3 4 2 2 4 5 6 6 6 5 4 3 3 3 3 4 5 5 6 7 7 7 6 6 6 5 6 7 6 6 6 5 5 6 6
2 3 4 7 4 1 2 3 4 1 1 4 3 2 2 3 4 4 4 4 3 2 2 1 1 3 4 5 7 8 7 6 6 7 6 5 5 5 5 4 4 4 5 6
3 3 6 6 4 1 1 2 3 2 2 1 3 5 4 1 2 3 3 3 3 3 3 2 2 2 3 4 6 6 6 6 7 7 6 6 5 5 5 4 4 4 4 5
4 4 6 6 5 3 4 1 4 2 2 1 4 2 3 2 2 2 1 2 2 3 3 2 1 2 3 5 6 6 6 6 6 7 7 6 6 5 4 4 4 4 4 4
5 5 6 5 6 4 3 5 3 1 1 1 1 4 4 2 0 0 1 2 2 3 3 1 2 3 3 4 5 6 6 5 5 6 6 6 5 4 3 3 3 4 4 4
4 5 7 4 2 2 5 3 1 0 0 0 0 1 2 1 2 2 2 2 2 2 2 1 2 3 3 2 3 4 4 4 5 5 5 4 4 4 3 4 4 4 3 4
6 6 5 2 3 3 3 2 1 1 1 1 1 1 1 1 2 2 2 2 2 2 2 1 1 3 2 2 2 2 3 3 4 4 4 4 4 4 4 4 4 5 4 5
1 2 2 1 1 2 1 1 1 1 1 2 2 1 2 3 2 2 2 2 2 2 1 1 1 1 1 1 1 2 3 3 3 3 3 3 3 4 4 5 5 5 5 5
2 4 3 3 3 2 1 2 2 1 0 2 3 2 2 2 3 3 2 2 2 3 2 1 0 1 1 1 2 1 2 2 2 3 3 3 3 3 4 5 5 6 5 5
6 6 4 5 5 2 1 1 1 2 2 1 3 3 2 2 3 3 2 2 2 2 2 1 0 1 1 0 1 2 2 2 3 3 3 3 3 2 2 4 6 7 8 8
7 6 5 5 3 2 1 2 1 1 2 1 1 2 2 2 2 2 2 2 3 2 2 2 1 1 2 1 1 2 2 2 2 3 3 3 3 3 3 3 3 4 5 6
6 4 4 4 4 2 1 1 1 1 2 2 2 2 2 2 2 2 2 3 2 2 2 2 1 1 2 1 1 1 1 2 2 2 3 4 4 4 4 4 3 3 3 5
8 6 6 5 2 2 2 1 1 2 1 1 1 2 3 2 2 2 2 2 1 1 1 1 1 2 2 1 1 1 1 1 1 1 2 2 3 3 3 4 4 3 2 2
7 5 4 3 2 3 3 2 3 3 2 2 1 1 2 2 2 2 2 2 2 2 2 1 2 3 2 1 1 1 1 2 1 1 0 1 1 2 2 2 3 3 3 3
5 5 4 3 3 4 4 5 4 4 4 4 4 3 2 2 1 1 2 2 2 2 2 2 2 2 1 1 1 1 1 1 1 1 0 1 1 2 2 2 2 3 3 3
6 7 6 6 6 5 5 5 4 4 4 4 4 3 2 2 3 3 2 1 1 0 1 2 2 1 1 1 1 1 1 1 1 1 1 1 2 2 2 2 3 3 2 1
3 5 6 6 6 5 5 5 4 3 4 4 4 4 3 3 4 3 2 1 2 2 3 3 2 1 2 2 1 1 1 1 1 1 1 1 2 1 1 2 2 2 2 2
1 1 2 3 4 4 4 3 3 3 4 4 4 3 2 2 3 3 2 2 3 3 3 2 1 1 2 2 1 1 1 1 1 1 1 1 1 1 1 1 2 2 2 2
2 0 1 1 2 3 3 3 3 3 3 3 4 4 4 3 3 2 2 2 3 2 2 2 1 2 2 2 1 1 1 1 1 1 1 1 1 1 1 2 2 2 2 2
2 1 0 1 2 1 1 2 3 3 2 2 2 3 3 3 2 1 2 3 4 3 2 2 2 3 3 2 1 1 1 1 1 1 2 1 2 2 2 2 2 2 2 2
2 1 2 1 1 1 0 1 1 1 2 2 2 3 4 4 3 2 2 2 2 3 2 2 3 4 3 2 1 1 1 1 1 1 2 2 2 2 2 2 2 2 2 2
2 2 2 1 1 1 0 1 1 1 2 2 2 2 3 2 1 2 2 3 4 4 2 3 4 4 3 2 1 1 1 1 1 1 2 2 2 1 1 1 1 1 2 2
2 1 1 1 1 0 1 1 0 0 1 0 0 0 1 2 2 2 1 2 3 3 2 2 4 3 2 1 1 1 1 1 1 1 1 1 1 1 1 1 2 1 1 1
2 1 1 1 1 1 0 1 1 0 1 1 1 1 0 0 1 1 1 2 2 2 2 1 1 1 1 1 1 1 0 0 0 0 1 0 0 0 0 0 0 1 1 1
2 2 2 2 2 1 0 1 1 1 1 2 1 0 1 1 1 0 1 1 1 1 1 1 1 1 1 1 1 1 1 1 1 1 1 1 0 0 0 1 0 0 0 0
Wind_Direction
238 260 315 319 318 326 327 203 198 227 210 227 202 180 173 148 130 125 121 118 114 105 102 123 156 178 180 181 181 181 180 184 194 200 201 196 194 197 201 207 210 204 200 202
330 329 342 322 315 318 318 318 227 196 250 233 190 143 134 140 140 147 146 145 140 129 112 144 165 180 173 172 173 171 178 187 188 187 196 199 198 196 198 206 208 200 203 203
292 310 351 304 277 311 340 333 238 217 228 180 127 149 163 164 156 162 161 157 150 150 182 181 179 176 178 182 169 165 172 179 179 185 196 206 198 190 198 204 202 204 207 200
232 360 247 245 259 111 84 14 11 55 164 162 162 177 182 155 146 163 166 157 152 159 170 171 193 173 170 163 164 166 171 178 184 186 192 188 182 190 201 203 204 215 223 216
157 216 266 279 290 348 106 344 351 58 56 64 70 54 25 22 144 165 173 165 165 165 169 166 166 178 155 152 157 162 174 185 190 184 181 179 187 203 208 205 211 220 226 223
165 193 231 248 288 308 101 302 319 55 77 75 71 64 273 296 81 74 105 138 144 141 127 125 158 161 143 156 160 175 186 192 193 189 186 191 201 209 210 210 219 224 231 222
188 214 246 263 300 19 136 226 267 100 131 146 177 209 216 219 180 149 141 115 111 114 111 125 128 119 126 154 178 188 184 187 194 191 192 193 198 205 204 206 213 221 226 229
180 204 242 282 35 138 209 227 196 116 272 52 305 178 176 188 177 153 109 96 95 102 97 95 104 114 129 162 195 176 168 178 195 195 200 195 194 207 209 205 209 222 224 235
197 214 233 236 168 209 190 182 217 277 292 107 97 201 193 170 158 152 140 130 113 115 106 34 59 119 137 231 205 157 156 180 195 198 201 194 192 210 222 216 214 222 215 225
339 283 293 315 13 358 71 143 225 219 244 165 163 216 208 178 175 171 154 166 163 140 117 20 3 22 195 214 174 137 170 194 194 194 205 208 204 206 212 221 218 218 217 217
299 283 325 330 324 313 344 24 12 355 159 185 171 190 206 200 190 186 180 194 174 163 172 213 260 285 263 154 128 167 199 198 197 203 203 213 222 221 218 226 217 210 215 209
242 246 228 258 269 287 336 332 346 341 324 247 181 189 192 200 199 186 181 174 171 169 176 211 214 289 300 261 178 189 226 223 206 205 203 205 208 247 256 235 240 227 219 210
233 245 229 236 252 280 308 303 322 317 269 246 223 182 167 185 184 175 178 177 184 191 200 203 180 286 291 273 212 195 216 234 220 207 204 209 205 206 244 282 278 257 233 214
247 253 267 262 256 271 291 293 295 316 295 249 206 168 153 163 169 170 190 198 195 190 204 200 197 265 268 229 165 207 228 233 229 222 213 210 209 214 216 222 236 255 254 225
253 238 231 241 252 277 290 319 334 300 292 308 169 144 138 143 177 210 220 199 162 172 222 217 234 272 270 183 173 229 244 255 247 235 225 222 215 216 220 219 220 226 245 254
242 239 224 203 221 260 273 266 256 252 201 177 198 183 166 163 197 224 219 183 158 210 245 232 240 261 258 218 193 236 251 270 248 224 244 250 236 226 222 217 216 213 221 229
232 239 224 215 225 245 252 246 236 229 204 184 195 202 179 153 171 248 243 212 185 203 223 219 246 256 257 245 245 241 246 278 300 334 287 250 246 235 216 208 214 215 225 221
229 226 213 207 222 240 253 248 231 209 201 195 181 166 164 172 207 233 235 206 113 39 260 235 227 241 252 247 252 231 220 246 255 251 268 273 256 236 217 210 210 212 226 223
233 220 214 217 224 224 238 234 222 211 189 167 160 173 194 211 216 217 205 166 174 244 271 263 247 243 263 253 251 233 220 230 247 264 264 266 262 240 210 202 200 211 223 223
293 209 201 222 226 217 213 213 197 184 182 167 159 169 192 217 212 203 189 208 228 233 241 243 245 262 261 265 261 226 217 221 233 252 257 263 236 211 207 209 211 217 219 218
349 354 164 199 226 201 187 178 168 183 198 185 176 191 204 214 205 185 169 237 266 240 217 217 233 263 264 254 243 229 230 218 216 204 202 211 194 192 209 228 227 222 225 224
8 30 76 117 97 119 167 160 166 177 185 189 196 194 181 193 205 209 219 219 226 211 205 228 236 240 247 251 246 254 241 228 211 195 200 206 194 197 214 227 231 226 219 215
347 10 15 54 109 130 125 142 153 158 169 184 205 197 187 198 195 182 242 254 220 216 217 237 239 230 234 224 222 223 221 220 206 205 214 220 214 209 219 234 237 232 225 225
348 346 329 298 113 85 42 265 214 194 193 203 208 196 182 178 216 232 216 219 216 219 221 232 228 227 223 215 218 215 213 210 210 220 216 204 205 214 228 229 228 235 236 235
325 327 336 1 54 237 256 247 248 121 84 49 78 143 155 168 179 214 218 213 209 203 228 247 239 235 219 216 223 230 230 218 206 193 198 201 198 207 226 225 229 238 247 254
335 329 313 278 240 239 249 136 120 139 135 116 58 83 95 201 168 178 189 198 195 189 185 198 216 222 247 268 268 251 243 259 360 40 22 10 103 159 217 234 230 220 223 237
335 340 4 0 343 317 259 131 135 156 152 142 142 116 93 83 84 144 174 192 189 173 178 190 182 172 176 180 163 144 130 114 109 96 54 24 22 94 215 186 176 6 138 162
Height
1481 1476 1472 1472 1470 1467 1471 1476 1483 1478 1475 1468 1464 1463 1464 1464 1465 1466 1467 1468 1469 1468 1470 1471 1472 1473 1475 1476 1479 1481 1483 1486 1488 1490 1492 1494 1495 1496 1498 1499 1500 1500 1501 1502
1481 1473 1472 1472 1468 1466 1466 1466 1469 1469 1469 1461 1461 1462 1463 1463 1464 1465 1466 1467 1467 1467 1468 1468 1469 1470 1471 1472 1474 1477 1479 1481 1483 1486 1488 1489 1490 1492 1493 1494 1495 1496 1496 1497
1491 1479 1475 1481 1470 1466 1467 1464 1465 1470 1467 1461 1462 1461 1462 1462 1462 1462 1463 1464 1465 1466 1466 1467 1467 1468 1468 1469 1471 1473 1474 1477 1479 1481 1482 1484 1486 1487 1488 1490 1491 1491 1492 1493
1492 1487 1493 1479 1462 1461 1463 1464 1461 1461 1461 1460 1459 1460 1460 1460 1460 1461 1461 1461 1462 1463 1464 1465 1465 1466 1467 1467 1468 1469 1471 1473 1475 1477 1479 1480 1481 1482 1484 1485 1486 1488 1488 1489
1494 1495 1487 1471 1461 1460 1464 1468 1462 1461 1460 1459 1459 1459 1461 1461 1461 1461 1461 1461 1461 1462 1463 1462 1462 1463 1464 1464 1466 1467 1469 1471 1472 1473 1474 1475 1476 1478 1479 1481 1482 1482 1484 1485
1489 1491 1491 1474 1459 1455 1460 1472 1463 1461 1461 1460 1459 1465 1464 1461 1460 1460 1460 1460 1460 1460 1460 1460 1460 1461 1461 1462 1463 1464 1466 1467 1469 1470 1471 1472 1473 1475 1476 1477 1478 1479 1480 1480
1484 1486 1478 1465 1458 1456 1473 1473 1462 1460 1460 1459 1459 1460 1460 1460 1459 1459 1460 1459 1459 1459 1458 1458 1458 1458 1459 1459 1460 1462 1463 1464 1466 1467 1468 1469 1471 1472 1473 1474 1474 1475 1476 1477
1482 1485 1481 1461 1459 1463 1465 1461 1460 1459 1459 1458 1457 1457 1457 1457 1457 1457 1457 1457 1458 1458 1457 1457 1456 1456 1456 1457 1458 1458 1459 1460 1462 1463 1465 1466 1467 1468 1469 1470 1471 1471 1471 1473
1472 1472 1462 1458 1458 1459 1458 1458 1458 1458 1457 1457 1456 1456 1456 1455 1455 1455 1455 1456 1456 1456 1456 1455 1455 1455 1454 1455 1455 1456 1456 1457 1458 1459 1461 1462 1463 1465 1466 1466 1466 1466 1467 1468
1467 1462 1459 1458 1457 1457 1456 1456 1456 1455 1455 1454 1454 1454 1454 1454 1454 1454 1454 1454 1454 1455 1454 1454 1453 1452 1452 1453 1453 1453 1454 1454 1455 1456 1457 1458 1459 1460 1461 1461 1461 1462 1462 1463
1467 1462 1459 1458 1457 1457 1455 1454 1454 1453 1453 1453 1453 1452 1452 1452 1452 1452 1452 1453 1453 1453 1452 1452 1451 1452 1451 1450 1450 1451 1451 1452 1452 1453 1454 1454 1454 1455 1456 1457 1457 1457 1458 1458
1465 1459 1459 1458 1457 1456 1454 1453 1453 1452 1451 1451 1450 1450 1450 1450 1450 1450 1450 1451 1451 1450 1450 1450 1449 1449 1448 1448 1448 1448 1448 1449 1449 1450 1450 1450 1451 1451 1451 1452 1452 1452 1453 1454
1456 1455 1455 1454 1454 1453 1452 1451 1451 1451 1450 1449 1449 1449 1448 1448 1448 1448 1448 1449 1449 1449 1449 1448 1447 1446 1446 1445 1445 1445 1445 1445 1446 1446 1447 1447 1447 1447 1447 1447 1447 1448 1448 1449
1452 1452 1452 1451 1451 1450 1450 1449 1449 1448 1448 1447 1447 1446 1447 1447 1446 1446 1446 1447 1447 1447 1446 1446 1444 1444 1443 1443 1443 1442 1442 1442 1442 1443 1443 1443 1443 1443 1443 1443 1443 1442 1443 1444
1448 1448 1448 1447 1447 1447 1447 1447 1446 1446 1445 1445 1445 1444 1444 1445 1444 1445 1445 1445 1445 1444 1444 1443 1442 1441 1441 1440 1440 1439 1438 1438 1439 1439 1439 1439 1439 1439 1439 1439 1438 1438 1438 1439
1442 1442 1443 1443 1443 1443 1443 1443 1443 1443 1442 1443 1443 1443 1442 1442 1442 1442 1442 1443 1442 1442 1441 1440 1440 1439 1438 1437 1436 1436 1435 1435 1435 1435 1435 1435 1435 1435 1435 1434 1434 1434 1434 1434
1438 1437 1438 1438 1439 1439 1439 1439 1439 1439 1440 1440 1440 1440 1440 1440 1440 1440 1440 1440 1439 1439 1438 1438 1437 1437 1436 1435 1433 1432 1432 1432 1432 1431 1431 1431 1431 1431 1430 1430 1430 1430 1430 1430
1433 1433 1433 1434 1435 1435 1435 1435 1436 1436 1436 1437 1437 1437 1437 1437 1437 1437 1437 1437 1436 1436 1435 1435 1434 1434 1433 1432 1430 1430 1429 1429 1429 1429 1428 1428 1428 1427 1427 1427 1427 1427 1426 1427
1427 1428 1428 1429 1430 1431 1431 1432 1432 1433 1433 1433 1433 1434 1434 1434 1434 1434 1434 1434 1433 1432 1432 1432 1431 1430 1429 1428 1428 1427 1426 1426 1426 1426 1426 1425 1425 1424 1424 1423 1423 1423 1423 1423
1425 1425 1425 1425 1426 1427 1428 1429 1429 1430 1430 1430 1430 1431 1431 1431 1431 1432 1431 1430 1430 1429 1429 1429 1428 1427 1426 1426 1425 1424 1424 1423 1423 1423 1423 1422 1422 1421 1421 1420 1420 1420 1420 1420
1423 1423 1423 1423 1424 1424 1425 1426 1426 1427 1428 1428 1428 1428 1428 1428 1429 1429 1428 1427 1427 1427 1427 1426 1425 1425 1424 1423 1423 1422 1421 1421 1421 1421 1420 1420 1420 1419 1419 1419 1418 1418 1417 1417
1423 1422 1422 1423 1422 1423 1424 1424 1425 1425 1425 1425 1425 1425 1425 1425 1426 1426 1426 1425 1425 1425 1424 1424 1423 1423 1422 1421 1421 1420 1419 1419 1419 1419 1419 1418 1418 1417 1417 1416 1416 1415 1415 1415
1424 1423 1423 1422 1422 1423 1423 1423 1423 1423 1423 1423 1423 1423 1423 1423 1423 1423 1423 1423 1423 1423 1423 1422 1422 1421 1420 1420 1419 1418 1418 1418 1418 1417 1417 1416 1416 1415 1415 1414 1414 1413 1412 1412
1424 1423 1423 1423 1422 1422 1422 1422 1422 1422 1422 1421 1421 1422 1422 1422 1422 1422 1421 1421 1421 1421 1421 1421 1420 1420 1419 1418 1418 1417 1417 1416 1416 1416 1415 1415 1414 1413 1412 1412 1411 1410 1410 1409
1424 1423 1423 1422 1422 1422 1421 1421 1421 1421 1421 1421 1421 1421 1421 1421 1420 1420 1420 1419 1419 1419 1419 1419 1419 1418 1418 1417 1417 1416 1415 1415 1414 1414 1413 1412 1412 1411 1410 1409 1409 1408 1408 1407
1424 1423 1423 1422 1422 1422 1422 1421 1421 1421 1421 1421 1421 1421 1421 1420 1420 1420 1419 1418 1418 1418 1418 1418 1417 1417 1416 1416 1415 1415 1414 1413 1413 1412 1412 1411 1410 1409 1408 1408 1407 1406 1405 1404
1425 1424 1423 1423 1422 1422 1422 1422 1421 1421 1421 1421 1420 1420 1420 1420 1419 1419 1418 1418 1417 1417 1417 1417 1416 1416 1415 1415 1414 1414 1413 1412 1411 1411 1410 1409 1408 1407 1406 1405 1404 1403 1402 1401